User: anonymous   Login
Location: *
(51.1248°S, 108.4023°W)
Time: 16:39:30
(UTC+00:00)
Language:

ARGOS - Orbit

View from above orbital plane
View from above orbital plane
View from above satellite
View from above satellite

Ground track
Ground track

The orbit data is extracted from the following two-line orbital elements,

1 25634U 99008A   21269.63377906 -.00000018  00000-0  10757-4 0  9991
2 25634  98.4139 292.3196 0010353  12.4762 347.6669 14.19403678169619
Epoch (UTC): 26 September 2021 15:12:38
Eccentricity: 0.0010353
inclination: 98.4139°
perigee height: 820 km
apogee height: 835 km
right ascension of ascending node: 292.3196°
argument of perigee: 12.4762°
revolutions per day: 14.19403678
mean anomaly at epoch: 347.6669°
orbit number at epoch: 16961

The dashed part of the orbit path shows where the satellite is in the earth's shadow,  

DLR